Le nostre stazioni meteo in Italia

Pubblicità
Il mio iltempo24.it
Reggio Calabria, Italia (16422): Temperatura & dewpoint: 07.11.2019 00:00:00 - 13.11.2019 00:00:00 (CET)Reggio Calabria, Italia (16422): velocità del vento: 07.11.2019 00:00:00 - 13.11.2019 00:00:00 (CET)Reggio Calabria, Italia (16422): direzione del vento: 07.11.2019 00:00:00 - 13.11.2019 00:00:00 (CET)Reggio Calabria, Italia (16422): visibility: 07.11.2019 00:00:00 - 13.11.2019 00:00:00 (CET)
Data & Tempo tt [°C] td [°C] ff [km/h] ff [kn] dd vv [km]
13.11.2019 00:00:00 - - - - - -
12.11.2019 23:00:00 15,0 12,0 44 24 SSE 8
12.11.2019 22:00:00 16,0 12,0 42 23 S 8
12.11.2019 21:00:00 15,0 12,0 41 22 SSE 8
12.11.2019 20:00:00 15,0 13,0 42 23 S 8
12.11.2019 19:00:00 17,0 11,0 44 24 S 8
12.11.2019 18:00:00 16,0 12,0 34 18 S 7
12.11.2019 17:00:00 16,0 11,0 39 21 S 10
12.11.2019 16:00:00 16,0 12,0 34 18 SSE 10
12.11.2019 15:00:00 17,0 11,0 39 21 SSE 10
12.11.2019 14:00:00 15,0 12,0 34 18 S 5
12.11.2019 13:00:00 16,0 10,0 37 20 S 10
12.11.2019 12:00:00 17,0 10,0 31 17 S 10
12.11.2019 11:00:00 17,0 11,0 31 17 S 10
12.11.2019 10:00:00 16,0 11,0 35 19 S 10
12.11.2019 09:00:00 16,0 13,0 34 18 SSE 10
12.11.2019 08:00:00 15,0 12,0 24 13 SSE 8
12.11.2019 07:00:00 16,0 14,0 22 12 SSE 6
12.11.2019 06:00:00 16,0 14,0 15 8 S 10
12.11.2019 05:00:00 - - - - - -
12.11.2019 04:00:00 - - - - - -
12.11.2019 03:00:00 - - - - - -
12.11.2019 02:00:00 - - - - - -
12.11.2019 01:00:00 - - - - - -
12.11.2019 00:00:00 19,0 15,0 46 25 SE 10
11.11.2019 23:00:00 19,0 13,0 18 10 - 10
11.11.2019 22:00:00 17,0 15,0 16 9 N 10
11.11.2019 21:00:00 16,0 14,0 15 8 NNE 10
11.11.2019 20:00:00 18,0 13,0 9 5 - 10
11.11.2019 19:00:00 17,0 13,0 22 12 E 10
11.11.2019 18:00:00 17,0 14,0 34 18 ESE 10
11.11.2019 17:00:00 18,0 13,0 55 30 ESE 10
11.11.2019 16:00:00 20,0 12,0 41 22 ESE 10
11.11.2019 15:00:00 19,0 12,0 26 14 ESE 10
11.11.2019 14:00:00 21,0 10,0 11 6 SE 10
11.11.2019 13:00:00 22,0 10,0 22 12 SE 10
11.11.2019 12:00:00 21,0 9,0 26 14 SE 10
11.11.2019 11:00:00 21,0 11,0 29 16 SSE 10
11.11.2019 10:00:00 21,0 12,0 28 15 SSE 10
11.11.2019 09:00:00 20,0 11,0 22 12 SE 10
11.11.2019 08:00:00 19,0 10,0 21 11 SE 10
11.11.2019 07:00:00 17,0 11,0 16 9 SE 10
11.11.2019 06:00:00 18,0 11,0 16 9 ESE 10
11.11.2019 05:00:00 - - - - - -
11.11.2019 04:00:00 - - - - - -
11.11.2019 03:00:00 - - - - - -
11.11.2019 02:00:00 - - - - - -
11.11.2019 01:00:00 - - - - - -
11.11.2019 00:00:00 17,0 11,0 18 10 SE 10
10.11.2019 23:00:00 17,0 11,0 18 10 SE 10
10.11.2019 22:00:00 18,0 10,0 16 9 ESE 10
10.11.2019 21:00:00 17,0 9,0 11 6 ESE 10
10.11.2019 20:00:00 16,0 9,0 13 7 ESE 10
10.11.2019 19:00:00 16,0 9,0 15 8 ESE 10
10.11.2019 18:00:00 16,0 7,0 9 5 E 10
10.11.2019 17:00:00 16,0 8,0 4 2 - 10
10.11.2019 16:00:00 18,0 7,0 4 2 - 10
10.11.2019 15:00:00 19,0 7,0 9 5 SO 10
10.11.2019 14:00:00 19,0 6,0 9 5 SO 10
10.11.2019 13:00:00 19,0 6,0 13 7 SO 10
10.11.2019 12:00:00 21,0 4,0 8 4 O 10
10.11.2019 11:00:00 20,0 3,0 8 4 - 10
10.11.2019 10:00:00 19,0 4,0 5 3 - 10
10.11.2019 09:00:00 18,0 6,0 8 4 ENE 10
10.11.2019 08:00:00 15,0 6,0 9 5 ENE 10
10.11.2019 07:00:00 11,0 5,0 9 5 ENE 10
10.11.2019 06:00:00 11,0 5,0 5 3 ENE 10
10.11.2019 05:00:00 - - - - - -
10.11.2019 04:00:00 - - - - - -
10.11.2019 03:00:00 - - - - - -
10.11.2019 02:00:00 - - - - - -
10.11.2019 01:00:00 - - - - - -
10.11.2019 00:00:00 14,0 5,0 15 8 NE 10
09.11.2019 23:00:00 14,0 6,0 8 4 NE 10
09.11.2019 22:00:00 15,0 6,0 13 7 NE 10
09.11.2019 21:00:00 15,0 8,0 15 8 NE 10
09.11.2019 20:00:00 16,0 9,0 11 6 NE 10
09.11.2019 19:00:00 17,0 9,0 18 10 N 10
09.11.2019 18:00:00 17,0 11,0 16 9 ENE 10
09.11.2019 17:00:00 17,0 11,0 18 10 N 10
09.11.2019 16:00:00 19,0 11,0 8 4 ESE 10
09.11.2019 15:00:00 18,0 10,0 24 13 SE 10
09.11.2019 14:00:00 19,0 10,0 28 15 SSE 10
09.11.2019 13:00:00 22,0 13,0 16 9 SSE 10
09.11.2019 12:00:00 21,0 12,0 15 8 S 10
09.11.2019 11:00:00 21,0 12,0 16 9 S 10
09.11.2019 10:00:00 21,0 14,0 15 8 S 10
09.11.2019 09:00:00 20,0 14,0 9 5 S 10
09.11.2019 08:00:00 20,0 13,0 11 6 SSE 10
09.11.2019 07:00:00 18,0 13,0 8 4 SE 10
09.11.2019 06:00:00 19,0 12,0 13 7 SSE 10
09.11.2019 05:00:00 - - - - - -
09.11.2019 04:00:00 - - - - - -
09.11.2019 03:00:00 - - - - - -
09.11.2019 02:00:00 - - - - - -
09.11.2019 01:00:00 - - - - - -
09.11.2019 00:00:00 18,0 12,0 22 12 SE 10
08.11.2019 23:00:00 19,0 12,0 22 12 SE 10
08.11.2019 22:00:00 19,0 12,0 24 13 SE 10
08.11.2019 21:00:00 20,0 12,0 21 11 SSE 10
08.11.2019 20:00:00 20,0 11,0 18 10 S 10
08.11.2019 19:00:00 19,0 11,0 29 16 SE 10
08.11.2019 18:00:00 19,0 13,0 21 11 SSE 10
08.11.2019 17:00:00 20,0 12,0 18 10 SSE 10
08.11.2019 16:00:00 21,0 13,0 15 8 S 10
08.11.2019 15:00:00 21,0 13,0 18 10 S 10
08.11.2019 14:00:00 - - - - - -
08.11.2019 13:00:00 - - - - - -
08.11.2019 12:00:00 - - - - - -
08.11.2019 11:00:00 - - - - - -
08.11.2019 10:00:00 - - - - - -
08.11.2019 09:00:00 - - - - - -
08.11.2019 08:00:00 - - - - - -
08.11.2019 07:00:00 - - - - - -
08.11.2019 06:00:00 - - - - - -
08.11.2019 05:00:00 - - - - - -
08.11.2019 04:00:00 - - - - - -
08.11.2019 03:00:00 - - - - - -
08.11.2019 02:00:00 - - - - - -
08.11.2019 01:00:00 - - - - - -
08.11.2019 00:00:00 16,0 11,0 13 7 NE 10
07.11.2019 23:00:00 16,0 11,0 16 9 N 10
07.11.2019 22:00:00 16,0 11,0 13 7 N 10
07.11.2019 21:00:00 17,0 10,0 18 10 N 10
07.11.2019 20:00:00 16,0 13,0 16 9 N 10
07.11.2019 19:00:00 16,0 13,0 15 8 N 10
07.11.2019 18:00:00 15,0 13,0 15 8 NE 10
07.11.2019 17:00:00 15,0 13,0 11 6 N 10
07.11.2019 16:00:00 15,0 14,0 15 8 N 6
07.11.2019 15:00:00 15,0 14,0 13 7 N 6
07.11.2019 14:00:00 16,0 15,0 18 10 N 5
07.11.2019 13:00:00 17,0 14,0 15 8 N 10
07.11.2019 12:00:00 17,0 13,0 11 6 N 10
07.11.2019 11:00:00 17,0 14,0 16 9 N 10
07.11.2019 10:00:00 17,0 14,0 9 5 NNE 10
07.11.2019 09:00:00 17,0 14,0 11 6 NE 10
07.11.2019 08:00:00 17,0 13,0 11 6 NNE 10
07.11.2019 07:00:00 17,0 13,0 15 8 NE 10
07.11.2019 06:00:00 17,0 13,0 18 10 NNE 10
07.11.2019 05:00:00 - - - - - -
07.11.2019 04:00:00 - - - - - -
07.11.2019 03:00:00 - - - - - -
07.11.2019 02:00:00 - - - - - -
07.11.2019 01:00:00 - - - - - -
07.11.2019 00:00:00 18,0 13,0 11 6 NNO 10

tt = Temperatura
td = dewpoint
ff = velocità del vento
dd = direzione del vento
vv = visibility

Stazioni seguenti

WeatherPro
AMSI
MeteoEarth